Notices

What's New in latest Release from April 7th, 2021:

- Updated Glossary, including Speed of Maximum Gust, and Total Hourly Precipitation

- Updated national and regional climate services offices contacts and prices information

- Addition of station inventory lists for 1981-2010, 1971-2000, and 1961-1990 Normals.

If you haven't already, please take our survey and provide feedback about our website: https://eccc.sondage-survey.ca/f/LanguageSelection.aspx?s=442ca660-fcf1-47c0-95a9-59707d6fd709

Hourly Data Report for February 09, 2021

OTTAWA INTL A
ONTARIO
Current Station Operator: NAVCAN

45°19'00.000" N
75°40'00.000" W
114.90 m
6106001
71628
YOW

Download Data

Hourly Data (February 2021)
Hourly Data Report for February 9, 2021
TIME
LST
Temp Definition
°C
Dew Point Definition
°C
Rel Hum Definition
%
Precip. Amount Definition
mm

Wind Dir Definition
10's deg

Wind Spd Definition
km/h
Visibility Definition
km
Stn Press Definition
kPa
Hmdx Definition


Wind Chill Definition


Weather Definition


00:00 -11.7 -13.6 86   16 9 24.1 101.28   -17 LegendNANA
01:00 -11.1 -13.2 85   18 9 24.1 101.29   -16 Cloudy
02:00 -10.9 -13.0 85   16 8 16.1 101.30   -16 LegendNANA
03:00 -10.7 -12.5 87   9 4 3.2 101.26   -13 Snow
04:00 -11.9 -13.5 88   4 9 3.2 101.22   -17 Snow
05:00 -12.1 -13.7 88   8 9 3.2 101.17   -17 Snow
06:00 -12.2 -13.9 88   6 10 6.4 101.11   -18 Snow
07:00 -12.1 -13.7 88   10 7 6.4 101.10   -16 Snow
08:00 -12.0 -13.7 87   4 10 4.8 101.13   -18 Snow
09:00 -11.6 -13.4 87   5 10 9.7 101.09   -17 Snow
10:00 -10.7 -12.8 84   6 9 16.1 101.05   -16 Snow
11:00 -9.8 -12.5 81   4 7 24.1 101.04   -14 LegendNANA
12:00 -7.3 -11.1 75   2 3 24.1 100.98   -9 LegendNANA
13:00 -7.2 -10.8 76   11 3 24.1 100.91   -9 Mostly Cloudy
14:00 -6.6 -10.4 75   32 4 24.1 100.86   -9 LegendNANA
15:00 -6.6 -10.8 72   8 5 24.1 100.84   -9 LegendNANA
16:00 -7.0 -11.6 70   0 1 24.1 100.84   -8 Mostly Cloudy
17:00 -7.0 -11.4 71   36 1 24.1 100.83   -8 LegendNANA
18:00 -9.3 -12.5 78   9 9 24.1 100.85   -14 LegendNANA
19:00 -9.1 -11.6 82   16 9 24.1 100.89   -14 Mostly Cloudy
20:00 -9.4 -11.5 85   15 9 24.1 100.89   -14 LegendNANA
21:00 -8.8 -10.9 85   18 6 24.1 100.90   -12 LegendNANA
22:00 -8.7 -10.5 87   17 7 24.1 100.92   -13 Snow Showers
23:00 -9.6 -10.7 92   35 4 24.1 100.94   -12 LegendNANA

Notes on Data Quality.

Legend

  • E = Estimated
  • M = Missing
  • NA = Not Available*
  • [empty] = Indicates an unobserved value
Date modified: